Wind_Speed
5 6 7 6 7 8 9 9 10 11 11 11 12 12 12 12 11 11 12 13 13 13 12 12 13 13 13 13 12 12 12 12 12 11 11 11 11 10 9 9 9 10 10
6 6 7 7 8 9 9 10 11 11 12 12 13 13 13 12 12 12 12 12 13 13 13 13 13 13 13 13 13 13 13 13 12 12 12 11 11 10 10 10 10 10 10
6 7 8 8 8 9 10 10 11 11 12 12 13 13 13 13 13 13 13 14 14 14 14 14 13 13 13 14 14 14 14 14 13 13 12 11 11 11 12 12 11 10 10
7 8 8 8 9 10 10 10 11 12 12 13 13 13 13 14 14 14 14 15 15 15 15 15 15 15 15 16 16 16 16 15 14 14 13 13 13 13 13 13 12 12 11
7 8 8 9 9 10 11 11 11 12 13 13 14 14 14 15 15 15 15 15 15 15 15 16 16 17 17 16 17 17 17 17 17 17 16 15 15 14 14 14 13 13 13
7 8 8 9 10 11 11 11 12 12 13 14 14 14 15 15 15 16 16 16 16 15 15 16 16 16 17 17 17 17 17 18 18 18 17 17 16 15 15 15 14 14 14
8 8 8 9 10 11 11 11 11 12 14 14 14 14 15 15 16 16 17 17 17 17 17 16 16 16 17 17 17 17 18 18 18 18 18 18 18 17 16 16 16 16 16
9 9 9 10 10 10 10 11 11 12 13 14 15 15 15 16 17 17 18 18 18 18 19 19 18 17 17 17 17 18 18 18 18 18 18 18 18 18 18 17 17 17 17
10 10 11 11 10 10 10 11 12 12 12 14 15 16 16 17 17 18 19 19 19 19 19 19 19 18 18 18 18 17 17 18 18 18 18 19 19 19 19 18 18 18 18
12 12 11 11 11 11 11 11 12 12 13 14 15 16 16 16 17 18 19 19 19 19 19 19 19 19 19 19 18 18 17 18 18 19 19 20 20 20 20 20 19 19 19
12 12 12 12 12 12 12 12 11 12 14 14 15 16 16 17 17 18 19 19 20 20 20 19 19 19 19 19 18 19 19 19 18 18 19 20 21 21 20 20 19 19 19
13 12 12 13 13 13 12 13 13 13 14 14 15 16 17 17 18 18 19 19 21 21 21 20 20 20 20 20 20 20 21 21 20 20 20 21 20 21 21 20 20 20 20
13 13 13 14 14 14 13 13 13 14 14 14 15 16 18 18 18 18 19 20 21 22 22 22 22 22 22 22 21 22 22 22 21 21 20 20 20 21 21 20 21 21 21
14 14 15 15 15 15 14 14 14 14 15 15 16 17 18 18 18 18 19 20 20 21 21 22 22 22 23 23 23 22 22 22 22 22 22 21 21 21 22 22 22 23 22
15 15 15 16 15 15 16 15 14 14 15 16 16 16 16 16 17 18 18 19 20 21 21 22 22 23 23 23 24 23 23 23 23 23 23 22 22 23 23 23 23 23 23
15 15 16 16 15 15 15 15 15 15 16 17 17 16 16 16 16 16 17 18 18 20 21 21 22 22 23 23 23 24 24 24 24 24 24 24 25 25 25 24 24 25 24
15 16 15 15 15 15 15 15 15 16 16 17 17 16 16 16 15 15 16 17 17 18 19 21 22 23 23 23 23 23 24 24 24 24 24 25 25 25 26 25 25 25 25
16 16 15 16 16 16 16 16 16 16 16 16 16 16 17 16 17 17 17 17 17 18 19 20 20 22 22 23 23 23 23 24 24 24 25 25 25 26 26 26 25 25 25
16 16 16 16 16 16 16 16 17 17 17 17 17 17 17 17 17 18 18 18 19 19 20 20 20 21 21 22 23 24 24 24 24 24 25 25 26 27 27 26 26 26 26
17 16 17 17 17 17 17 17 18 18 18 18 18 18 18 18 17 18 18 19 20 20 20 21 21 21 21 22 23 23 24 24 25 26 26 26 26 27 27 27 27 27 27
18 17 17 18 18 18 18 18 19 19 19 19 19 18 18 19 19 19 19 19 20 21 21 22 22 22 22 23 23 23 24 24 24 25 26 27 27 27 27 28 27 27 27
19 19 18 18 18 19 19 19 20 20 20 20 19 19 19 20 20 19 20 21 22 22 22 22 22 23 23 24 24 25 25 25 25 26 27 27 28 27 27 28 28 28 28
20 20 20 20 20 20 19 20 21 21 21 21 20 20 20 21 21 21 21 22 23 23 23 23 23 24 24 24 25 25 25 26 27 28 28 28 28 28 28 28 28 29 29
21 21 21 21 22 21 21 21 21 22 22 22 22 21 21 22 23 23 24 24 23 23 23 24 23 24 24 25 25 26 26 26 26 26 27 28 29 29 29 28 28 28 28
23 23 22 23 23 23 23 22 22 23 23 23 23 22 22 22 23 23 23 23 24 24 24 25 25 25 25 25 26 26 26 27 28 28 27 28 28 29 29 29 29 28 27
24 24 24 25 25 25 24 23 24 24 23 23 23 23 23 23 23 23 23 23 23 24 25 25 25 26 26 26 26 26 26 26 27 27 27 26 27 27 28 28 28 28 27
Wind_Direction
271 274 276 269 261 260 257 252 247 247 248 249 251 252 249 246 245 246 246 246 248 250 252 254 253 255 254 251 249 247 247 253 252 251 253 254 255 260 264 262 263 263 266
287 283 281 274 268 266 263 258 252 250 252 253 252 251 247 247 249 249 249 249 249 251 252 252 252 254 252 252 252 250 250 253 250 249 252 253 256 260 262 262 264 264 264
294 288 285 279 273 270 266 261 256 254 255 253 252 250 248 247 248 248 249 250 251 252 254 253 253 254 251 251 252 252 253 252 250 250 249 251 257 261 263 261 262 262 260
296 290 285 282 278 277 273 266 256 254 255 256 256 255 251 251 252 252 253 254 254 253 253 252 252 253 250 252 252 253 254 254 251 251 251 253 256 260 262 260 259 259 258
298 293 289 285 280 278 275 270 264 258 256 257 257 255 255 257 257 255 254 255 256 254 252 251 252 252 251 254 256 256 256 255 252 252 252 255 256 258 260 259 261 261 259
307 301 291 286 281 280 276 272 265 262 258 260 259 258 259 258 256 255 253 252 253 253 254 253 254 253 251 254 255 256 256 255 254 252 254 254 256 258 259 262 263 264 261
312 306 298 289 283 280 277 274 267 263 262 262 261 262 259 257 256 256 254 252 252 254 254 256 254 254 253 255 257 257 255 254 254 256 254 252 254 256 257 259 261 262 263
315 310 303 301 290 281 277 273 271 268 264 259 261 264 263 261 259 257 255 254 254 254 254 256 255 254 254 255 256 257 257 255 254 257 256 253 255 255 256 259 261 261 263
318 311 304 302 295 287 280 278 275 272 268 266 266 265 264 262 263 261 258 256 256 256 256 254 254 255 256 257 257 258 257 256 255 257 259 258 257 258 258 259 261 260 262
317 312 310 307 300 293 286 281 278 273 273 272 270 268 266 264 263 262 258 258 257 256 257 256 254 253 255 255 257 257 259 258 258 256 258 261 261 260 258 259 261 261 261
317 313 312 312 309 301 291 285 282 280 277 275 273 271 268 266 267 263 261 260 258 257 256 256 256 254 255 256 258 258 259 260 262 260 260 261 261 260 260 258 259 258 258
319 316 316 318 312 306 300 289 281 283 280 278 276 274 270 268 270 267 262 261 259 257 257 255 255 255 256 256 258 258 258 260 262 263 264 262 260 258 256 258 258 258 259
320 318 318 317 313 305 300 292 287 284 284 280 278 276 273 269 271 268 264 263 262 259 257 255 257 257 257 258 258 259 257 259 261 260 262 262 260 258 257 258 258 257 259
320 318 318 318 315 309 302 294 292 287 284 282 279 279 276 273 270 270 267 264 262 261 260 258 259 259 259 259 259 259 259 259 261 260 260 261 261 261 260 258 257 258 258
320 318 318 317 314 310 307 299 295 291 288 285 281 283 281 276 273 270 268 267 265 263 263 261 260 261 261 260 261 261 260 259 261 261 261 260 261 262 263 261 259 259 257
320 318 318 317 314 309 308 303 299 298 294 290 287 284 280 277 275 270 266 265 264 263 264 262 261 264 264 263 262 261 261 259 261 261 261 260 260 262 262 263 262 261 258
320 319 318 316 315 311 309 305 300 299 297 293 289 285 280 278 275 273 268 266 265 263 264 264 262 262 263 264 263 262 262 261 261 262 262 261 260 261 260 261 262 259 259
321 321 320 316 314 314 310 307 305 304 301 296 291 288 282 279 277 275 272 270 268 268 267 265 264 263 263 263 263 262 262 261 261 262 262 261 260 260 259 259 260 259 259
319 321 320 317 315 313 312 308 304 304 301 296 290 286 283 282 279 275 274 272 271 271 269 267 265 265 265 263 262 262 262 261 261 261 263 263 262 260 259 260 261 260 260
314 315 316 316 314 310 309 309 307 306 303 296 291 286 282 283 281 278 275 274 274 273 272 270 268 266 266 265 262 262 262 262 261 263 265 263 263 262 262 262 262 261 260
311 309 311 311 311 310 308 307 305 306 303 299 294 289 283 282 280 278 276 274 274 273 273 272 270 268 267 266 265 265 267 265 264 265 265 265 265 264 262 262 262 261 259
312 309 308 309 311 310 309 307 304 304 303 301 297 288 286 284 279 276 275 274 274 273 272 272 270 269 268 267 267 267 269 268 268 267 266 266 265 264 263 262 262 260 258
311 309 308 308 309 308 306 305 303 302 301 300 299 293 288 284 280 278 276 275 275 273 272 273 272 270 269 268 267 268 268 268 268 268 267 266 264 262 262 263 262 261 260
308 308 308 306 306 306 305 304 303 302 300 299 298 295 290 287 283 280 278 276 276 275 272 271 271 272 271 270 269 267 268 269 269 270 268 266 263 263 262 262 261 259 258
308 309 307 307 305 303 302 302 302 302 299 298 296 294 290 289 287 284 282 279 276 274 272 272 272 271 272 272 270 268 267 268 270 269 269 268 265 264 262 262 261 258 257
306 307 307 307 307 304 301 300 302 301 299 297 296 294 292 290 287 283 282 280 279 277 273 273 273 272 273 272 270 268 269 269 268 268 268 268 266 264 263 262 260 260 260
Height
5884 5884 5883 5883 5883 5883 5883 5883 5882 5883 5883 5883 5884 5884 5885 5885 5885 5886 5886 5886 5887 5888 5888 5889 5889 5890 5890 5891 5891 5892 5893 5894 5894 5895 5895 5896 5896 5897 5897 5897 5898 5898 5898
5882 5882 5881 5881 5881 5880 5880 5880 5880 5880 5881 5881 5881 5882 5882 5882 5882 5883 5883 5884 5884 5885 5886 5886 5887 5887 5888 5888 5889 5890 5890 5891 5892 5892 5893 5894 5894 5895 5895 5895 5896 5896 5896
5881 5880 5879 5879 5878 5878 5878 5877 5877 5878 5878 5878 5878 5878 5879 5879 5879 5880 5880 5881 5882 5882 5883 5883 5884 5884 5885 5885 5886 5887 5887 5888 5888 5889 5890 5891 5892 5892 5893 5893 5893 5893 5893
5879 5878 5877 5877 5876 5876 5876 5875 5875 5875 5875 5875 5875 5875 5876 5876 5876 5877 5877 5878 5878 5879 5879 5880 5881 5882 5882 5882 5883 5883 5884 5884 5885 5887 5888 5889 5889 5890 5890 5891 5891 5891 5891
5877 5876 5875 5874 5874 5874 5873 5873 5872 5872 5872 5872 5872 5872 5873 5873 5873 5874 5874 5875 5875 5875 5876 5877 5877 5878 5879 5879 5880 5880 5881 5881 5882 5883 5884 5885 5886 5887 5887 5888 5888 5888 5889
5875 5874 5873 5872 5871 5871 5870 5870 5869 5869 5869 5869 5869 5869 5869 5870 5870 5870 5871 5871 5872 5872 5873 5873 5874 5874 5875 5875 5876 5876 5877 5878 5878 5879 5880 5881 5882 5883 5884 5884 5885 5885 5886
5873 5872 5871 5870 5869 5868 5867 5866 5866 5866 5866 5866 5866 5866 5866 5866 5866 5867 5867 5868 5868 5869 5869 5869 5870 5870 5871 5871 5872 5872 5873 5874 5874 5875 5876 5877 5878 5879 5880 5881 5881 5882 5882
5871 5870 5869 5867 5866 5865 5864 5864 5863 5863 5862 5862 5862 5863 5862 5863 5862 5863 5863 5864 5864 5865 5865 5866 5866 5866 5867 5867 5868 5868 5869 5870 5870 5871 5872 5873 5874 5875 5876 5877 5877 5878 5878
5869 5868 5866 5865 5863 5862 5862 5861 5860 5859 5859 5859 5859 5859 5859 5859 5858 5859 5859 5859 5860 5860 5861 5861 5862 5862 5863 5863 5864 5864 5865 5866 5866 5867 5867 5868 5870 5871 5872 5873 5873 5874 5874
5867 5865 5864 5862 5860 5859 5858 5858 5857 5856 5855 5855 5854 5854 5854 5854 5854 5854 5855 5855 5855 5856 5856 5857 5858 5858 5859 5859 5860 5860 5861 5862 5862 5863 5863 5864 5865 5866 5867 5868 5869 5869 5870
5864 5863 5861 5860 5858 5856 5855 5854 5853 5853 5852 5851 5850 5850 5850 5850 5849 5850 5850 5850 5850 5851 5852 5852 5853 5854 5854 5855 5855 5856 5857 5857 5857 5858 5859 5860 5860 5861 5862 5863 5864 5864 5865
5862 5860 5859 5857 5855 5853 5852 5851 5850 5849 5848 5847 5846 5846 5845 5845 5845 5845 5845 5845 5845 5846 5847 5847 5848 5849 5849 5850 5851 5851 5852 5853 5853 5854 5854 5855 5855 5856 5857 5858 5859 5859 5860
5860 5858 5856 5854 5852 5850 5848 5847 5846 5845 5844 5843 5842 5841 5840 5840 5840 5839 5839 5840 5840 5841 5841 5842 5843 5844 5844 5845 5846 5846 5847 5848 5848 5849 5849 5849 5850 5851 5851 5852 5853 5854 5855
5857 5855 5853 5851 5849 5847 5845 5843 5842 5841 5839 5838 5838 5837 5835 5835 5835 5834 5834 5835 5835 5835 5836 5837 5838 5838 5839 5839 5840 5841 5841 5842 5843 5843 5844 5844 5845 5845 5846 5847 5847 5848 5849
5855 5853 5850 5848 5846 5844 5842 5840 5839 5837 5835 5834 5833 5832 5831 5830 5829 5829 5829 5829 5830 5830 5831 5831 5832 5832 5833 5834 5834 5835 5836 5836 5837 5837 5838 5839 5839 5840 5840 5841 5842 5842 5843
5852 5850 5847 5845 5843 5840 5838 5836 5835 5833 5831 5830 5828 5827 5826 5825 5825 5824 5824 5824 5824 5824 5825 5825 5826 5826 5827 5828 5828 5828 5829 5830 5830 5831 5832 5833 5833 5833 5834 5835 5835 5836 5836
5850 5847 5845 5842 5840 5837 5835 5833 5831 5829 5827 5825 5824 5822 5821 5821 5820 5819 5819 5819 5819 5819 5819 5819 5820 5820 5821 5821 5822 5822 5823 5823 5824 5825 5825 5826 5827 5827 5827 5828 5828 5829 5830
5847 5844 5842 5839 5836 5834 5831 5829 5827 5825 5823 5821 5819 5818 5817 5816 5815 5815 5814 5814 5814 5814 5814 5814 5814 5814 5814 5815 5815 5816 5816 5817 5818 5818 5818 5819 5819 5820 5820 5821 5821 5822 5823
5844 5841 5838 5836 5833 5831 5828 5825 5823 5820 5818 5817 5815 5813 5812 5811 5810 5810 5809 5809 5809 5809 5809 5808 5808 5808 5808 5808 5809 5809 5810 5810 5811 5811 5812 5812 5812 5813 5813 5814 5814 5815 5815
5841 5838 5835 5832 5829 5827 5824 5821 5819 5816 5814 5812 5810 5808 5807 5806 5805 5804 5804 5804 5803 5803 5803 5803 5802 5802 5802 5802 5802 5803 5803 5803 5804 5804 5804 5804 5805 5805 5806 5807 5807 5807 5808
5837 5834 5831 5828 5825 5823 5820 5817 5815 5812 5810 5807 5805 5803 5802 5801 5800 5799 5799 5798 5798 5797 5797 5797 5796 5796 5796 5796 5796 5796 5796 5796 5796 5797 5797 5797 5797 5798 5798 5799 5799 5800 5800
5833 5830 5828 5824 5821 5818 5816 5813 5810 5807 5805 5802 5800 5798 5796 5795 5794 5793 5792 5792 5792 5791 5791 5790 5790 5790 5790 5790 5790 5790 5790 5790 5789 5790 5790 5790 5790 5790 5791 5791 5792 5792 5793
5829 5826 5823 5820 5817 5814 5811 5808 5805 5802 5800 5797 5795 5792 5791 5789 5788 5787 5786 5785 5785 5784 5784 5784 5783 5783 5783 5783 5783 5783 5782 5782 5782 5781 5781 5782 5782 5782 5783 5783 5783 5784 5784
5824 5821 5818 5815 5812 5809 5806 5803 5799 5797 5794 5792 5789 5787 5785 5783 5782 5781 5780 5779 5778 5778 5777 5777 5776 5776 5775 5775 5775 5775 5774 5774 5774 5773 5773 5773 5773 5774 5774 5774 5775 5775 5776
5819 5816 5812 5809 5806 5803 5800 5797 5794 5791 5788 5786 5783 5781 5779 5777 5776 5774 5773 5772 5771 5770 5770 5769 5769 5768 5768 5768 5767 5767 5767 5767 5766 5766 5765 5765 5765 5765 5765 5766 5767 5767 5768
5813 5810 5807 5804 5800 5797 5794 5791 5788 5785 5782 5779 5777 5774 5772 5771 5769 5767 5766 5765 5764 5763 5762 5762 5761 5761 5760 5760 5759 5759 5759 5758 5758 5757 5757 5757 5756 5757 5757 5758 5758 5759 5760